"Pseudo-MPEC" for P10PDp8

Created 2019 Jul 14 13:07:08 UT using Find_Orb

Click here for an explanation of pseudo-MPECs

 
 Astrometry: 
     P10PDp8  C2019 07 061$t:m2MWNO?CW7vo#igp#7RkC88r[C)_C-*JAstrometrydY]VWuF51
     P10PDp8  C2019 07 06S'Oredacted;0clickp[MS3sPK1HaThereRFLuSWqjTU1*SlYuyjF51
     P10PDp8  C2019 07 06(fcYlN'S(YSU/afcX0=30(=OP6kK5[.!xgforGLHexplanation/F51

Station data:
(F51) Pan-STARRS 1, Haleakala  (N20.707235 W156.255910)  US/Hawaii.
   Observers N. Primak, A. Schultz, S. Watters, J. Thiel, T. Goggia. Measurer
   PS1 Science Consortium. 1.8-m Ritchey-Chrétien + CCD.

Orbital elements:  P10PDp8
   Perihelion 2019 May 23.310688 +/- 51.2 TT =  7:27:23 (JD 2458626.810688)
Epoch 2019 Jul  6.0 TT = JDT 2458670.5   Earth MOID: 0.2667   Ma: 0.0983
M  17.53180610 +/- 24               (J2000 ecliptic)          AutoNEOCP
n   0.40128364 +/- 0.301            Peri.  314.40106 +/- 70
a   1.82040664 +/- 0.918            Node   294.90464 +/- 42
e   0.3292275 +/- 0.269             Incl.   19.60085 +/- 12
P   2.46/897.10d           H 23.0   G  0.15   U 11.9  SR
q 1.22107862 +/- 0.289    Q 2.41973465 +/- 36.4
From 3 observations 2019 July 6 (42.9 min); mean residual 0".02
Residuals in arcseconds: 
190706 F51  .02-  .02+    190706 F51  .04+  .03-    190706 F51  .01-  .01+    

Ephemerides (geocentric):
Date (UTC) HH   RA              Dec         delta   r     elong  mag " sig PA
---- -- -- --  -------------   -----------  ------ ------ -----  --- ---- ---
2019 07 14 13  19 37 07.580   -27 01 26.51  .28873 1.3043 174.6 21.3  47d  28
2019 07 14 14  19 37 03.070   -26 58 40.56  .28884 1.3044 174.7 21.3  47d  28
2019 07 14 15  19 36 58.567   -26 55 54.71  .28895 1.3045 174.7 21.3  47d  28
2019 07 14 16  19 36 54.070   -26 53 08.97  .28906 1.3046 174.8 21.3  47d  28
2019 07 14 17  19 36 49.581   -26 50 23.32  .28917 1.3047 174.8 21.3  48d  28
2019 07 14 18  19 36 45.098   -26 47 37.77  .28928 1.3049 174.8 21.3  48d  28
2019 07 14 19  19 36 40.623   -26 44 52.33  .28939 1.3050 174.9 21.3  48d  28
2019 07 14 20  19 36 36.154   -26 42 06.99  .28950 1.3051 174.9 21.3  48d  28
2019 07 14 21  19 36 31.693   -26 39 21.74  .28961 1.3052 175.0 21.3  48d  29
2019 07 14 22  19 36 27.238   -26 36 36.60  .28973 1.3054 175.0 21.3  48d  29
2019 07 14 23  19 36 22.790   -26 33 51.57  .28984 1.3055 175.1 21.3  48d  29
2019 07 15 00  19 36 18.350   -26 31 06.63  .28995 1.3056 175.1 21.3  49d  29
2019 07 15 01  19 36 13.916   -26 28 21.80  .29006 1.3057 175.2 21.3  49d  29
2019 07 15 02  19 36 09.489   -26 25 37.08  .29018 1.3059 175.2 21.3  49d  29
2019 07 15 03  19 36 05.070   -26 22 52.46  .29029 1.3060 175.2 21.3  49d  29
2019 07 15 04  19 36 00.657   -26 20 07.94  .29040 1.3061 175.3 21.3  49d  29
2019 07 15 05  19 35 56.251   -26 17 23.54  .29052 1.3062 175.3 21.3  49d  29
2019 07 15 06  19 35 51.852   -26 14 39.23  .29063 1.3064 175.4 21.3  49d  29
2019 07 15 07  19 35 47.460   -26 11 55.04  .29075 1.3065 175.4 21.3  49d  29
2019 07 15 08  19 35 43.076   -26 09 10.95  .29087 1.3066 175.4 21.3  50d  29
2019 07 15 09  19 35 38.698   -26 06 26.97  .29098 1.3067 175.5 21.3  50d  29
2019 07 15 10  19 35 34.327   -26 03 43.10  .29110 1.3069 175.5 21.3  50d  29
2019 07 15 11  19 35 29.963   -26 00 59.33  .29122 1.3070 175.5 21.3  50d  29
2019 07 15 12  19 35 25.606   -25 58 15.68  .29133 1.3071 175.6 21.3  50d  29
2019 07 15 13  19 35 21.256   -25 55 32.13  .29145 1.3073 175.6 21.3  50d  29
2019 07 15 14  19 35 16.914   -25 52 48.70  .29157 1.3074 175.6 21.3  50d  29
2019 07 15 15  19 35 12.578   -25 50 05.37  .29169 1.3075 175.7 21.3  50d  29
2019 07 15 16  19 35 08.249   -25 47 22.16  .29181 1.3076 175.7 21.3  51d  29
2019 07 15 17  19 35 03.927   -25 44 39.06  .29193 1.3078 175.7 21.3  51d  29
2019 07 15 18  19 34 59.613   -25 41 56.07  .29205 1.3079 175.8 21.3  51d  29
2019 07 15 19  19 34 55.305   -25 39 13.19  .29217 1.3080 175.8 21.3  51d  29
2019 07 15 20  19 34 51.004   -25 36 30.43  .29229 1.3081 175.8 21.3  51d  29
2019 07 15 21  19 34 46.710   -25 33 47.78  .29241 1.3083 175.8 21.3  51d  29
2019 07 15 22  19 34 42.424   -25 31 05.24  .29253 1.3084 175.9 21.3  51d  29
2019 07 15 23  19 34 38.144   -25 28 22.82  .29265 1.3085 175.9 21.3  51d  29
2019 07 16 00  19 34 33.872   -25 25 40.52  .29277 1.3086 175.9 21.3  51d  29
2019 07 16 01  19 34 29.606   -25 22 58.32  .29290 1.3088 175.9 21.3  52d  28
2019 07 16 02  19 34 25.348   -25 20 16.25  .29302 1.3089 176.0 21.3  52d  28
2019 07 16 03  19 34 21.096   -25 17 34.29  .29314 1.3090 176.0 21.3  52d  27
2019 07 16 04  19 34 16.852   -25 14 52.44  .29327 1.3091 176.0 21.3  52d  27
2019 07 16 05  19 34 12.614   -25 12 10.72  .29339 1.3093 176.0 21.3  53d  26
2019 07 16 06  19 34 08.384   -25 09 29.11  .29351 1.3094 176.0 21.3  53d  25
2019 07 16 07  19 34 04.161   -25 06 47.62  .29364 1.3095 176.1 21.3  53d  25
2019 07 16 08  19 33 59.944   -25 04 06.24  .29376 1.3097 176.1 21.3  53d  25
2019 07 16 09  19 33 55.735   -25 01 24.99  .29389 1.3098 176.1 21.3  54d  25
2019 07 16 10  19 33 51.533   -24 58 43.86  .29402 1.3099 176.1 21.3  54d  25
2019 07 16 11  19 33 47.338   -24 56 02.84  .29414 1.3100 176.1 21.3  54d  25
2019 07 16 12  19 33 43.150   -24 53 21.95  .29427 1.3102 176.1 21.3  54d  25